Time,TemperatureF,DewpointF,PressureIn,WindDirection,WindDirectionDegrees,WindSpeedMPH,WindSpeedGustMPH,Humidity,HourlyPrecipIn,Conditions,Clouds,dailyrainin,SoftwareType,DateUTC
2013-02-14 00:02:00,32.0,22.0,29.65,WNW,291,0.0,-999.0,67,-99.99,,,-99.99,,2013-02-14 05:02:00,
2013-02-14 00:11:00,32.0,22.0,29.65,WNW,291,0.0,-999.0,67,-99.99,,,-99.99,,2013-02-14 05:11:00,
2013-02-14 00:22:00,32.0,22.0,29.65,North,360,0.0,-999.0,66,-99.99,,,-99.99,,2013-02-14 05:22:00,
2013-02-14 00:32:00,32.0,22.0,29.64,North,360,0.0,-999.0,66,-99.99,,,-99.99,,2013-02-14 05:32:00,
2013-02-14 00:42:00,32.0,22.0,29.64,North,360,0.0,-999.0,66,-99.99,,,-99.99,,2013-02-14 05:42:00,
2013-02-14 00:52:00,32.0,22.0,29.63,North,355,0.0,-999.0,65,-99.99,,,-99.99,,2013-02-14 05:52:00,
2013-02-14 01:02:00,33.0,22.0,29.62,North,5,1.0,-999.0,64,-99.99,,,-99.99,,2013-02-14 06:02:00,
2013-02-14 01:11:00,33.0,22.0,29.62,North,355,1.0,-999.0,64,-99.99,,,-99.99,,2013-02-14 06:11:00,
2013-02-14 01:21:00,33.0,22.0,29.62,North,355,1.0,-999.0,64,-99.99,,,-99.99,,2013-02-14 06:21:00,
2013-02-14 01:32:00,33.0,23.0,29.62,NE,40,0.0,-999.0,65,-99.99,,,-99.99,,2013-02-14 06:32:00,
2013-02-14 01:42:00,33.0,23.0,29.62,NE,40,0.0,-999.0,65,-99.99,,,-99.99,,2013-02-14 06:42:00,
2013-02-14 01:51:00,33.0,22.0,29.63,NE,56,0.0,-999.0,64,-99.99,,,-99.99,,2013-02-14 06:51:00,
2013-02-14 02:01:00,33.0,22.0,29.67,East,93,0.0,-999.0,63,-99.99,,,-99.99,,2013-02-14 07:01:00,
2013-02-14 02:11:00,33.0,22.0,29.67,East,93,0.0,-999.0,63,-99.99,,,-99.99,,2013-02-14 07:11:00,
2013-02-14 02:21:00,33.0,22.0,29.67,East,93,0.0,-999.0,63,-99.99,,,-99.99,,2013-02-14 07:21:00,
2013-02-14 02:32:00,32.0,22.0,29.67,East,93,0.0,-999.0,66,-99.99,,,-99.99,,2013-02-14 07:32:00,
2013-02-14 02:42:00,32.0,22.0,29.67,East,93,0.0,-999.0,66,-99.99,,,-99.99,,2013-02-14 07:42:00,
2013-02-14 02:52:00,32.0,22.0,29.67,NE,41,0.0,-999.0,65,-99.99,,,-99.99,,2013-02-14 07:52:00,
2013-02-14 03:01:00,32.0,22.0,29.66,NE,41,0.0,-999.0,65,-99.99,,,-99.99,,2013-02-14 08:01:00,
2013-02-14 03:11:00,32.0,22.0,29.66,NE,41,0.0,-999.0,65,-99.99,,,-99.99,,2013-02-14 08:11:00,
2013-02-14 03:22:00,32.0,21.0,29.66,North,355,1.0,-999.0,64,-99.99,,,-99.99,,2013-02-14 08:22:00,
2013-02-14 03:32:00,32.0,22.0,29.66,North,355,0.0,-999.0,66,-99.99,,,-99.99,,2013-02-14 08:32:00,
2013-02-14 03:43:00,32.0,22.0,29.66,North,355,0.0,-999.0,66,-99.99,,,-99.99,,2013-02-14 08:43:00,
2013-02-14 03:52:00,32.0,22.0,29.66,North,355,0.0,-999.0,66,-99.99,,,-99.99,,2013-02-14 08:52:00,
2013-02-14 04:02:00,32.0,22.0,29.66,North,355,0.0,-999.0,67,-99.99,,,-99.99,,2013-02-14 09:02:00,
2013-02-14 04:11:00,32.0,22.0,29.67,North,355,1.0,-999.0,66,-99.99,,,-99.99,,2013-02-14 09:11:00,
2013-02-14 04:21:00,32.0,22.0,29.67,North,355,1.0,-999.0,66,-99.99,,,-99.99,,2013-02-14 09:21:00,
2013-02-14 04:32:00,32.0,22.0,29.67,North,355,0.0,-999.0,67,-99.99,,,-99.99,,2013-02-14 09:32:00,
2013-02-14 04:42:00,32.0,22.0,29.67,North,355,0.0,-999.0,67,-99.99,,,-99.99,,2013-02-14 09:42:00,
2013-02-14 04:51:00,32.0,22.0,29.67,North,355,0.0,-999.0,67,-99.99,,,-99.99,,2013-02-14 09:51:00,
2013-02-14 05:02:00,31.0,22.0,29.68,North,355,0.0,-999.0,68,-99.99,,,-99.99,,2013-02-14 10:02:00,
2013-02-14 05:11:00,31.0,22.0,29.68,North,355,0.0,-999.0,69,-99.99,,,-99.99,,2013-02-14 10:11:00,
2013-02-14 05:21:00,31.0,22.0,29.68,North,355,0.0,-999.0,69,-99.99,,,-99.99,,2013-02-14 10:21:00,
2013-02-14 05:32:00,31.0,22.0,29.69,North,355,0.0,-999.0,69,-99.99,,,-99.99,,2013-02-14 10:32:00,
2013-02-14 05:42:00,31.0,22.0,29.69,North,355,0.0,-999.0,69,-99.99,,,-99.99,,2013-02-14 10:42:00,
2013-02-14 05:52:00,31.0,22.0,29.69,North,355,0.0,-999.0,69,-99.99,,,-99.99,,2013-02-14 10:52:00,
2013-02-14 06:02:00,31.0,22.0,29.69,NNW,348,1.0,-999.0,69,-99.99,,,-99.99,,2013-02-14 11:02:00,
2013-02-14 06:11:00,31.0,22.0,29.69,NNW,348,0.0,-999.0,69,-99.99,,,-99.99,,2013-02-14 11:11:00,
2013-02-14 06:21:00,31.0,22.0,29.69,NNW,348,0.0,-999.0,69,-99.99,,,-99.99,,2013-02-14 11:21:00,
2013-02-14 06:32:00,31.0,23.0,29.69,NNE,20,0.0,-999.0,71,-99.99,,,-99.99,,2013-02-14 11:32:00,
2013-02-14 06:42:00,31.0,23.0,29.69,NNE,20,0.0,-999.0,71,-99.99,,,-99.99,,2013-02-14 11:42:00,
2013-02-14 06:52:00,30.0,22.0,29.70,NNW,345,0.0,-999.0,72,-99.99,,,-99.99,,2013-02-14 11:52:00,
2013-02-14 07:02:00,30.0,22.0,29.70,NNW,345,0.0,-999.0,73,-99.99,,,-99.99,,2013-02-14 12:02:00,
2013-02-14 07:12:00,30.0,22.0,29.70,NNW,345,0.0,-999.0,73,-99.99,,,-99.99,,2013-02-14 12:12:00,
2013-02-14 07:22:00,29.0,22.0,29.70,NNW,345,0.0,-999.0,74,-99.99,,,-99.99,,2013-02-14 12:22:00,
2013-02-14 07:32:00,29.0,22.0,29.71,NNW,345,0.0,-999.0,74,-99.99,,,-99.99,,2013-02-14 12:32:00,
2013-02-14 07:42:00,29.0,22.0,29.71,NNW,345,0.0,-999.0,74,-99.99,,,-99.99,,2013-02-14 12:42:00,
2013-02-14 07:53:00,29.0,22.0,29.72,NNW,345,0.0,-999.0,74,-99.99,,,-99.99,,2013-02-14 12:53:00,
2013-02-14 08:02:00,30.0,22.0,29.73,North,5,1.0,-999.0,72,-99.99,,,-99.99,,2013-02-14 13:02:00,
2013-02-14 08:11:00,30.0,22.0,29.73,North,5,1.0,-999.0,72,-99.99,,,-99.99,,2013-02-14 13:11:00,
2013-02-14 08:21:00,31.0,22.0,29.74,NW,310,1.0,-999.0,70,-99.99,,,-99.99,,2013-02-14 13:21:00,
2013-02-14 08:32:00,32.0,23.0,29.74,NW,322,1.0,-999.0,69,-99.99,,,-99.99,,2013-02-14 13:32:00,
2013-02-14 08:42:00,32.0,23.0,29.74,NW,322,1.0,-999.0,69,-99.99,,,-99.99,,2013-02-14 13:42:00,
2013-02-14 08:51:00,33.0,24.0,29.75,ENE,72,0.0,-999.0,68,-99.99,,,-99.99,,2013-02-14 13:51:00,
2013-02-14 09:01:00,32.0,23.0,29.74,North,5,0.0,-999.0,68,-99.99,,,-99.99,,2013-02-14 14:01:00,
2013-02-14 09:11:00,33.0,23.0,29.74,North,355,1.0,-999.0,66,-99.99,,,-99.99,,2013-02-14 14:11:00,
2013-02-14 09:21:00,33.0,23.0,29.74,North,355,1.0,-999.0,66,-99.99,,,-99.99,,2013-02-14 14:21:00,
2013-02-14 09:32:00,34.0,23.0,29.74,NNW,345,1.0,-999.0,63,-99.99,,,-99.99,,2013-02-14 14:32:00,
2013-02-14 09:42:00,34.0,23.0,29.74,NNW,345,1.0,-999.0,63,-99.99,,,-99.99,,2013-02-14 14:42:00,
2013-02-14 09:52:00,35.0,23.0,29.75,NNW,344,1.0,-999.0,60,-99.99,,,-99.99,,2013-02-14 14:52:00,
2013-02-14 10:02:00,35.0,21.0,29.75,North,360,2.0,-999.0,56,-99.99,,,-99.99,,2013-02-14 15:02:00,
2013-02-14 10:11:00,35.0,21.0,29.75,North,360,2.0,-999.0,56,-99.99,,,-99.99,,2013-02-14 15:11:00,
2013-02-14 10:21:00,36.0,21.0,29.76,North,360,1.0,-999.0,54,-99.99,,,-99.99,,2013-02-14 15:21:00,
2013-02-14 10:32:00,37.0,21.0,29.76,North,355,1.0,-999.0,51,-99.99,,,-99.99,,2013-02-14 15:32:00,
2013-02-14 10:42:00,37.0,21.0,29.76,North,355,1.0,-999.0,51,-99.99,,,-99.99,,2013-02-14 15:42:00,
2013-02-14 10:52:00,37.0,21.0,29.76,ENE,71,1.0,-999.0,51,-99.99,,,-99.99,,2013-02-14 15:52:00,
2013-02-14 11:02:00,37.0,19.0,29.76,North,360,1.0,-999.0,48,-99.99,,,-99.99,,2013-02-14 16:02:00,
2013-02-14 11:11:00,38.0,18.0,29.77,North,360,2.0,-999.0,43,-99.99,,,-99.99,,2013-02-14 16:11:00,
2013-02-14 11:21:00,38.0,18.0,29.77,North,360,2.0,-999.0,43,-99.99,,,-99.99,,2013-02-14 16:21:00,
2013-02-14 11:32:00,39.0,18.0,29.76,NW,324,1.0,-999.0,42,-99.99,,,-99.99,,2013-02-14 16:32:00,
2013-02-14 11:42:00,39.0,18.0,29.76,NW,324,1.0,-999.0,42,-99.99,,,-99.99,,2013-02-14 16:42:00,
2013-02-14 11:51:00,40.0,18.0,29.76,North,5,2.0,-999.0,40,-99.99,,,-99.99,,2013-02-14 16:51:00,
2013-02-14 12:01:00,40.0,20.0,29.77,North,355,1.0,-999.0,44,-99.99,,,-99.99,,2013-02-14 17:01:00,
2013-02-14 12:11:00,40.0,18.0,29.77,NNW,348,1.0,-999.0,40,-99.99,,,-99.99,,2013-02-14 17:11:00,
2013-02-14 12:21:00,40.0,18.0,29.77,NNW,348,1.0,-999.0,40,-99.99,,,-99.99,,2013-02-14 17:21:00,
2013-02-14 12:32:00,40.0,18.0,29.77,NNW,345,2.0,-999.0,41,-99.99,,,-99.99,,2013-02-14 17:32:00,
2013-02-14 12:42:00,40.0,18.0,29.77,NNW,345,2.0,-999.0,41,-99.99,,,-99.99,,2013-02-14 17:42:00,
2013-02-14 12:52:00,40.0,18.0,29.77,North,355,1.0,-999.0,40,-99.99,,,-99.99,,2013-02-14 17:52:00,
2013-02-14 13:01:00,41.0,19.0,29.77,NNE,33,1.0,-999.0,41,-99.99,,,-99.99,,2013-02-14 18:01:00,
2013-02-14 13:11:00,41.0,19.0,29.77,NNE,33,1.0,-999.0,41,-99.99,,,-99.99,,2013-02-14 18:11:00,
2013-02-14 13:23:00,41.0,17.0,29.77,SW,222,0.0,-999.0,37,-99.99,,,-99.99,,2013-02-14 18:23:00,
2013-02-14 13:32:00,41.0,19.0,29.77,North,350,1.0,-999.0,41,-99.99,,,-99.99,,2013-02-14 18:32:00,
2013-02-14 13:42:00,41.0,19.0,29.77,North,350,1.0,-999.0,41,-99.99,,,-99.99,,2013-02-14 18:42:00,
2013-02-14 13:52:00,41.0,17.0,29.77,NNW,336,1.0,-999.0,38,-99.99,,,-99.99,,2013-02-14 18:52:00,
2013-02-14 14:02:00,41.0,17.0,29.77,North,360,1.0,-999.0,38,-99.99,,,-99.99,,2013-02-14 19:02:00,
2013-02-14 14:11:00,41.0,17.0,29.77,North,360,1.0,-999.0,38,-99.99,,,-99.99,,2013-02-14 19:11:00,
2013-02-14 14:22:00,41.0,19.0,29.78,North,360,1.0,-999.0,40,-99.99,,,-99.99,,2013-02-14 19:22:00,
2013-02-14 14:32:00,40.0,20.0,29.78,NNW,337,1.0,-999.0,44,-99.99,,,-99.99,,2013-02-14 19:32:00,
2013-02-14 14:42:00,40.0,20.0,29.78,NNW,337,1.0,-999.0,44,-99.99,,,-99.99,,2013-02-14 19:42:00,
2013-02-14 14:52:00,41.0,19.0,29.78,NNW,348,1.0,-999.0,40,-99.99,,,-99.99,,2013-02-14 19:52:00,
2013-02-14 15:01:00,41.0,20.0,29.79,NNE,24,1.0,-999.0,42,-99.99,,,-99.99,,2013-02-14 20:01:00,
2013-02-14 15:11:00,40.0,20.0,29.79,ENE,78,1.0,-999.0,45,-99.99,,,-99.99,,2013-02-14 20:11:00,
2013-02-14 15:21:00,40.0,20.0,29.79,ENE,78,1.0,-999.0,45,-99.99,,,-99.99,,2013-02-14 20:21:00,
2013-02-14 15:32:00,39.0,20.0,29.80,North,350,0.0,-999.0,46,-99.99,,,-99.99,,2013-02-14 20:32:00,
2013-02-14 15:42:00,39.0,20.0,29.80,North,350,0.0,-999.0,46,-99.99,,,-99.99,,2013-02-14 20:42:00,
2013-02-14 15:52:00,38.0,19.0,29.80,North,360,0.0,-999.0,45,-99.99,,,-99.99,,2013-02-14 20:52:00,
2013-02-14 16:02:00,38.0,20.0,29.80,North,360,1.0,-999.0,47,-99.99,,,-99.99,,2013-02-14 21:02:00,
2013-02-14 16:11:00,38.0,20.0,29.80,North,360,1.0,-999.0,47,-99.99,,,-99.99,,2013-02-14 21:11:00,
2013-02-14 16:21:00,37.0,19.0,29.80,NNE,26,0.0,-999.0,47,-99.99,,,-99.99,,2013-02-14 21:21:00,
2013-02-14 16:32:00,37.0,19.0,29.81,East,88,0.0,-999.0,48,-99.99,,,-99.99,,2013-02-14 21:32:00,
2013-02-14 16:42:00,37.0,19.0,29.81,East,88,0.0,-999.0,48,-99.99,,,-99.99,,2013-02-14 21:42:00,
2013-02-14 16:51:00,36.0,18.0,29.82,East,88,0.0,-999.0,48,-99.99,,,-99.99,,2013-02-14 21:51:00,
2013-02-14 17:02:00,36.0,19.0,29.83,East,88,0.0,-999.0,50,-99.99,,,-99.99,,2013-02-14 22:02:00,
2013-02-14 17:11:00,35.0,18.0,29.83,East,88,0.0,-999.0,50,-99.99,,,-99.99,,2013-02-14 22:11:00,
2013-02-14 17:21:00,35.0,18.0,29.83,East,88,0.0,-999.0,50,-99.99,,,-99.99,,2013-02-14 22:21:00,
2013-02-14 17:32:00,34.0,17.0,29.85,East,88,0.0,-999.0,49,-99.99,,,-99.99,,2013-02-14 22:32:00,
2013-02-14 17:42:00,34.0,17.0,29.85,East,88,0.0,-999.0,49,-99.99,,,-99.99,,2013-02-14 22:42:00,
2013-02-14 17:51:00,34.0,17.0,29.85,East,88,0.0,-999.0,50,-99.99,,,-99.99,,2013-02-14 22:51:00,
2013-02-14 18:01:00,33.0,17.0,29.86,East,88,0.0,-999.0,51,-99.99,,,-99.99,,2013-02-14 23:01:00,
2013-02-14 18:11:00,33.0,17.0,29.86,East,88,0.0,-999.0,51,-99.99,,,-99.99,,2013-02-14 23:11:00,
2013-02-14 18:21:00,32.0,18.0,29.86,East,88,0.0,-999.0,56,-99.99,,,-99.99,,2013-02-14 23:21:00,
2013-02-14 18:32:00,31.0,18.0,29.87,East,88,0.0,-999.0,58,-99.99,,,-99.99,,2013-02-14 23:32:00,
2013-02-14 18:42:00,31.0,18.0,29.87,East,88,0.0,-999.0,58,-99.99,,,-99.99,,2013-02-14 23:42:00,
2013-02-14 18:52:00,31.0,18.0,29.88,East,88,0.0,-999.0,57,-99.99,,,-99.99,,2013-02-14 23:52:00,
2013-02-14 19:02:00,30.0,19.0,29.88,East,88,0.0,-999.0,63,-99.99,,,-99.99,,2013-02-15 00:02:00,
2013-02-14 19:11:00,30.0,19.0,29.88,East,88,0.0,-999.0,63,-99.99,,,-99.99,,2013-02-15 00:11:00,
2013-02-14 19:22:00,30.0,19.0,29.89,East,88,0.0,-999.0,62,-99.99,,,-99.99,,2013-02-15 00:22:00,
2013-02-14 19:32:00,30.0,19.0,29.90,East,88,0.0,-999.0,62,-99.99,,,-99.99,,2013-02-15 00:32:00,
2013-02-14 19:42:00,30.0,19.0,29.90,East,88,0.0,-999.0,62,-99.99,,,-99.99,,2013-02-15 00:42:00,
2013-02-14 19:51:00,30.0,18.0,29.90,East,88,0.0,-999.0,61,-99.99,,,-99.99,,2013-02-15 00:51:00,
2013-02-14 20:02:00,30.0,18.0,29.90,East,88,0.0,-999.0,61,-99.99,,,-99.99,,2013-02-15 01:02:00,
2013-02-14 20:11:00,30.0,18.0,29.90,East,88,0.0,-999.0,61,-99.99,,,-99.99,,2013-02-15 01:11:00,
2013-02-14 20:21:00,30.0,18.0,29.90,East,88,0.0,-999.0,61,-99.99,,,-99.99,,2013-02-15 01:21:00,
2013-02-14 20:32:00,30.0,20.0,29.90,East,88,0.0,-999.0,66,-99.99,,,-99.99,,2013-02-15 01:32:00,
2013-02-14 20:41:00,30.0,20.0,29.90,East,88,0.0,-999.0,66,-99.99,,,-99.99,,2013-02-15 01:41:00,
2013-02-14 20:51:00,29.0,19.0,29.90,East,88,0.0,-999.0,67,-99.99,,,-99.99,,2013-02-15 01:51:00,
2013-02-14 21:01:00,29.0,22.0,29.90,East,88,0.0,-999.0,76,-99.99,,,-99.99,,2013-02-15 02:01:00,
2013-02-14 21:11:00,29.0,22.0,29.90,East,88,0.0,-999.0,76,-99.99,,,-99.99,,2013-02-15 02:11:00,
2013-02-14 21:21:00,28.0,22.0,29.90,East,88,0.0,-999.0,79,-99.99,,,-99.99,,2013-02-15 02:21:00,
2013-02-14 21:32:00,27.0,22.0,29.90,East,88,1.0,-999.0,82,-99.99,,,-99.99,,2013-02-15 02:32:00,
2013-02-14 21:41:00,27.0,22.0,29.90,East,88,1.0,-999.0,82,-99.99,,,-99.99,,2013-02-15 02:41:00,
2013-02-14 21:52:00,27.0,21.0,29.90,East,88,0.0,-999.0,77,-99.99,,,-99.99,,2013-02-15 02:52:00,
2013-02-14 22:02:00,27.0,21.0,29.90,East,88,0.0,-999.0,77,-99.99,,,-99.99,,2013-02-15 03:02:00,
2013-02-14 22:11:00,27.0,21.0,29.90,East,88,0.0,-999.0,77,-99.99,,,-99.99,,2013-02-15 03:11:00,
2013-02-14 22:22:00,27.0,20.0,29.90,East,88,0.0,-999.0,76,-99.99,,,-99.99,,2013-02-15 03:22:00,
2013-02-14 22:32:00,27.0,20.0,29.89,East,88,0.0,-999.0,74,-99.99,,,-99.99,,2013-02-15 03:32:00,
2013-02-14 22:42:00,27.0,20.0,29.89,East,88,0.0,-999.0,74,-99.99,,,-99.99,,2013-02-15 03:42:00,
2013-02-14 22:51:00,27.0,21.0,29.89,East,88,0.0,-999.0,78,-99.99,,,-99.99,,2013-02-15 03:51:00,
2013-02-14 23:02:00,27.0,22.0,29.89,East,88,0.0,-999.0,82,-99.99,,,-99.99,,2013-02-15 04:02:00,
2013-02-14 23:11:00,27.0,22.0,29.89,East,88,0.0,-999.0,82,-99.99,,,-99.99,,2013-02-15 04:11:00,
2013-02-14 23:21:00,27.0,22.0,29.89,East,88,0.0,-999.0,82,-99.99,,,-99.99,,2013-02-15 04:21:00,
2013-02-14 23:32:00,26.0,22.0,29.91,East,88,0.0,-999.0,84,-99.99,,,-99.99,,2013-02-15 04:32:00,
2013-02-14 23:42:00,26.0,22.0,29.91,East,88,0.0,-999.0,84,-99.99,,,-99.99,,2013-02-15 04:42:00,
2013-02-14 23:52:00,26.0,22.0,29.91,East,88,0.0,-999.0,85,-99.99,,,-99.99,,2013-02-15 04:52:00,